Location: Ch�teau-Arnoux
(44.0814°N, 6.0027°E)
Time: 22:39:20
(UTC+00:00)

CZ-2C R/B - Pass Details

Date: 15 November 2019
Orbit: 667 x 785 km, 98.1° (Epoch: 06 December)

Event Time Altitude Azimuth Distance (km) Brightness Sun altitude
Rises 04:42:31 0° 6° (N) 3,190 5.7 -19.4°
Reaches altitude 10° 04:44:57 10° 359° (N) 2,244 4.8 -19.0°
Maximum altitude 04:49:30 40° 291° (WNW) 1,053 2.7 -18.2°
Enters shadow 04:52:00 23° 236° (SW) 1,496 3.6 -17.7°
